Flag for U.S.A. Weather past 2 weeks in Ontario, Oregon, U.S.A.

Now
72 °F

Sunny.


Feels Like: 74 °F
Forecast: 41 / 72 °F
Wind: 6 mph from North

Location: Ontario Municipal Airport

Current Time: Apr 19, 2015 at 3:18:09 PM

Latest Report: Apr 19, 2015 at 2:53 PM


Visibility: 10 mi

Pressure: 30.06 "Hg

Humidity: 17%

Dew point: 25 °F

Location of OntarioLocation

Historic Weather in Ontario — Graph

°F

Ontario temperature yesterday

Maximum temperature yesterday: 75 °F (at 3:53 PM)
Minimum temperature yesterday: 53 °F (at 5:53 AM)
Average temperature yesterday: 64 °F

Past Weeks' High & Low Weather Summary

 TemperatureHumidityPressure
High75 °F (Apr 18, 3:53 PM)93% (Apr 5, 10:53 PM)30.40 "Hg (Apr 5, 10:53 PM)
Low30 °F (Apr 13, 6:53 AM)12% (Apr 18, 5:53 PM)29.65 "Hg (Apr 14, 12:53 AM)
Average50 °F49%30.02 "Hg
* Reported Apr 4 1:53 PM — Apr 19 1:53 PM, Ontario, Weather by CustomWeather, © 2015

Note: Actual official high and low records may vary slightly from our data, if they occured in-between our weather recording intervals... More about our weather records

Advertising

Ontario weather history for previous 24 hours

 ConditionsComfort  
Time TempWeatherWind HumidityBarometerVisibility
1:53 PM
Sun, Apr 19
69 °FSunny.7 mph17%30.09 "Hg10 mi
12:53 PM68 °FSunny.7 mph20%30.11 "Hg10 mi
11:53 AM65 °FSunny.No wind23%30.12 "Hg10 mi
10:53 AM60 °FSunny.5 mph35%30.14 "Hg10 mi
9:53 AM54 °FSunny.10 mph40%30.16 "Hg10 mi
8:53 AM49 °FClear.8 mph43%30.17 "Hg10 mi
7:53 AM45 °FClear.5 mph53%30.17 "Hg10 mi
6:53 AM45 °FClear.3 mph45%30.14 "Hg10 mi
5:53 AM45 °FClear.No wind48%30.14 "Hg10 mi
4:53 AM47 °FClear.5 mph41%30.14 "Hg10 mi
3:53 AM48 °FClear.6 mph39%30.12 "Hg10 mi
2:53 AM47 °FClear.12 mph41%30.13 "Hg10 mi
1:53 AM49 °FClear.10 mph36%30.14 "Hg10 mi
1:00 AM53 °FClear.9 mph28%30.14 "Hg10 mi
11:53 PM
Sat, Apr 18
58 °FClear.18 mph23%30.09 "Hg10 mi
10:53 PM59 °FClear.18 mph24%30.10 "Hg10 mi
9:53 PM60 °FSunny.17 mph25%30.10 "Hg10 mi
8:53 PM64 °FSunny.22 mph23%30.07 "Hg10 mi
7:53 PM69 °FSunny.20 mph21%30.05 "Hg10 mi
6:53 PM73 °FSunny.21 mph14%30.06 "Hg10 mi
5:53 PM75 °FSunny.24 mph12%30.06 "Hg10 mi
4:53 PM75 °FSunny.15 mph14%30.07 "Hg10 mi
3:53 PM75 °FSunny.14 mph15%30.09 "Hg10 mi
Weather by CustomWeather, © 2015

See weather overviewHow to use our weather pages